Location: Ayer Observatory
(42.2600°N, 71.0700°W)
Time: 07:55:37
(UTC-04:00)

Tiangong 2 - Visible Passes

Search period start: 21 July 2018 00:00
Search period end: 31 July 2018 00:00
Orbit: 386 x 394 km, 42.8° (Epoch: 21 July)

Date Brightness Start Highest point End Pass type
(mag) Time Alt. Az. Time Alt. Az. Time Alt. Az.
21 Jul 2.8 22:18:38 10° W 22:20:44 23° SW 22:20:44 23° SW visible
22 Jul 1.9 21:20:43 10° W 21:23:42 37° SSW 21:25:28 20° SE visible
23 Jul 3.4 22:00:43 10° WSW 22:02:29 14° SW 22:02:33 14° SSW visible
24 Jul 2.8 21:02:23 10° W 21:04:58 22° SSW 21:07:21 11° SSE visible
26 Jul 3.6 20:44:33 10° WSW 20:46:06 13° SW 20:47:39 10° S visible
